DAL1455 KATL-KJAX

Flight info

Callsign DAL1455
Flight time 0h 49m
Altitude 31000
Route VRSTY3 NOKIE DUCHY OHDEA2
Aircraft A321/M-SDE3FGHIRWY/LB1

Departure

Time 2026-05-04 23:00
Airport Hartsfield Jackson Atlanta International Airport (KATL)

Arrival

Time 2026-05-04 23:49
Airport Jacksonville International Airport (KJAX)
Time Latitude Longitude Altitude Speed Heading
2026-05-04 22:26 33.63998 -84.43542 1036 ft 0 kts 268°
2026-05-04 22:26 33.63959 -84.43643 1036 ft 0 kts 90°
2026-05-04 22:38 33.63959 -84.43649 1035 ft 4 kts 90°
2026-05-04 22:38 33.63960 -84.43681 1036 ft 4 kts 103°
2026-05-04 22:38 33.63970 -84.43709 1036 ft 4 kts 137°
2026-05-04 22:39 33.63991 -84.43722 1036 ft 2 kts 179°
2026-05-04 22:39 33.63997 -84.43722 1036 ft 0 kts 180°
2026-05-04 22:49 33.63995 -84.43722 1036 ft 1 kts 180°
2026-05-04 22:49 33.63970 -84.43722 1036 ft 9 kts 180°
2026-05-04 22:50 33.63894 -84.43722 1035 ft 11 kts 180°
2026-05-04 22:50 33.63819 -84.43722 1035 ft 11 kts 180°
2026-05-04 22:50 33.63748 -84.43722 1036 ft 10 kts 180°
2026-05-04 22:50 33.63688 -84.43720 1036 ft 8 kts 161°
2026-05-04 22:51 33.63665 -84.43657 1036 ft 10 kts 92°
2026-05-04 22:51 33.63665 -84.43549 1035 ft 13 kts 90°
2026-05-04 22:51 33.63665 -84.43442 1035 ft 12 kts 90°
2026-05-04 22:51 33.63664 -84.43345 1035 ft 11 kts 90°
2026-05-04 22:52 33.63664 -84.43257 1035 ft 10 kts 90°
2026-05-04 22:52 33.63664 -84.43174 1035 ft 11 kts 89°
2026-05-04 22:52 33.63665 -84.43085 1035 ft 10 kts 90°
2026-05-04 22:52 33.63665 -84.43005 1035 ft 9 kts 90°
2026-05-04 22:53 33.63665 -84.42932 1035 ft 10 kts 90°
2026-05-04 22:53 33.63665 -84.42803 1035 ft 20 kts 92°
2026-05-04 22:53 33.63656 -84.42666 1036 ft 14 kts 94°
2026-05-04 22:53 33.63654 -84.42558 1036 ft 12 kts 90°
2026-05-04 22:54 33.63654 -84.42457 1036 ft 11 kts 89°
2026-05-04 22:54 33.63655 -84.42366 1036 ft 10 kts 89°
2026-05-04 22:54 33.63655 -84.42285 1036 ft 9 kts 89°
2026-05-04 22:54 33.63656 -84.42217 1036 ft 8 kts 89°
2026-05-04 22:55 33.63656 -84.42171 1036 ft 10 kts 89°
2026-05-04 22:55 33.63656 -84.42093 1036 ft 9 kts 90°
2026-05-04 22:55 33.63656 -84.42021 1036 ft 8 kts 90°
2026-05-04 22:55 33.63655 -84.41951 1035 ft 8 kts 90°
2026-05-04 22:56 33.63655 -84.41883 1035 ft 10 kts 90°
2026-05-04 22:56 33.63656 -84.41758 1035 ft 18 kts 89°
2026-05-04 22:56 33.63656 -84.41613 1035 ft 17 kts 90°
2026-05-04 22:56 33.63656 -84.41484 1035 ft 14 kts 90°
2026-05-04 22:57 33.63656 -84.41370 1035 ft 13 kts 90°
2026-05-04 22:57 33.63656 -84.41264 1035 ft 13 kts 90°
2026-05-04 22:57 33.63656 -84.41163 1035 ft 12 kts 90°
2026-05-04 22:57 33.63656 -84.41069 1035 ft 11 kts 90°
2026-05-04 22:58 33.63655 -84.40981 1035 ft 10 kts 90°
2026-05-04 22:58 33.63630 -84.40918 1035 ft 9 kts 154°
2026-05-04 22:58 33.63556 -84.40911 1036 ft 11 kts 179°
2026-05-04 22:58 33.63492 -84.40930 1036 ft 9 kts 219°
2026-05-04 22:59 33.63471 -84.40999 1036 ft 9 kts 270°
2026-05-04 22:59 33.63471 -84.41081 1035 ft 12 kts 270°
2026-05-04 22:59 33.63470 -84.41350 1035 ft 65 kts 270°
2026-05-04 22:59 33.63471 -84.42146 1036 ft 123 kts 270°
2026-05-04 23:00 33.63471 -84.43358 1038 ft 165 kts 269°
2026-05-04 23:00 33.63479 -84.44791 1432 ft 176 kts 268°
2026-05-04 23:00 33.63544 -84.46283 1960 ft 180 kts 269°
2026-05-04 23:00 33.63554 -84.47779 2561 ft 178 kts 265°
2026-05-04 23:01 33.63527 -84.49304 2886 ft 192 kts 265°
2026-05-04 23:01 33.63495 -84.50989 3029 ft 211 kts 265°
2026-05-04 23:01 33.63468 -84.52809 3205 ft 223 kts 266°
2026-05-04 23:01 33.63451 -84.54691 3560 ft 226 kts 267°
2026-05-04 23:02 33.63444 -84.56582 3938 ft 228 kts 266°
2026-05-04 23:02 33.63440 -84.58547 4100 ft 248 kts 267°
2026-05-04 23:02 33.63438 -84.60711 4538 ft 265 kts 268°
2026-05-04 23:02 33.63361 -84.62928 5401 ft 267 kts 258°
2026-05-04 23:03 33.62774 -84.65032 6255 ft 268 kts 240°
2026-05-04 23:03 33.61647 -84.66804 7072 ft 269 kts 222°
2026-05-04 23:03 33.60114 -84.68082 7943 ft 270 kts 210°
2026-05-04 23:03 33.58406 -84.69043 8776 ft 274 kts 198°
2026-05-04 23:04 33.56514 -84.69419 9559 ft 280 kts 182°
2026-05-04 23:04 33.54553 -84.69183 10294 ft 287 kts 173°
2026-05-04 23:04 33.52572 -84.68801 11016 ft 291 kts 173°
2026-05-04 23:04 33.50560 -84.68413 11735 ft 295 kts 173°
2026-05-04 23:05 33.48521 -84.68022 12452 ft 299 kts 173°
2026-05-04 23:05 33.46453 -84.67631 13181 ft 303 kts 173°
2026-05-04 23:05 33.44370 -84.67105 13796 ft 311 kts 163°
2026-05-04 23:05 33.42422 -84.65948 13951 ft 315 kts 146°
2026-05-04 23:06 33.40781 -84.64091 14073 ft 338 kts 129°
2026-05-04 23:06 33.39492 -84.61620 14221 ft 361 kts 121°
2026-05-04 23:06 33.38235 -84.58968 14665 ft 370 kts 121°
2026-05-04 23:06 33.36953 -84.56272 15270 ft 375 kts 121°
2026-05-04 23:07 33.35648 -84.53548 15899 ft 379 kts 122°
2026-05-04 23:07 33.34322 -84.50801 16520 ft 383 kts 122°
2026-05-04 23:07 33.32980 -84.48029 17128 ft 388 kts 122°
2026-05-04 23:07 33.31621 -84.45225 17745 ft 392 kts 122°
2026-05-04 23:08 33.30248 -84.42394 18338 ft 396 kts 123°
2026-05-04 23:08 33.28860 -84.39530 18851 ft 400 kts 123°
2026-05-04 23:08 33.27461 -84.36638 19401 ft 404 kts 122°
2026-05-04 23:08 33.26050 -84.33720 19902 ft 408 kts 122°
2026-05-04 23:09 33.24624 -84.30772 20403 ft 412 kts 122°
2026-05-04 23:09 33.23185 -84.27797 20881 ft 415 kts 122°
2026-05-04 23:09 33.21735 -84.24798 21375 ft 419 kts 122°
2026-05-04 23:09 33.20267 -84.21771 21862 ft 423 kts 122°
2026-05-04 23:10 33.18783 -84.18720 22344 ft 427 kts 122°
2026-05-04 23:10 33.17283 -84.15649 22819 ft 430 kts 122°
2026-05-04 23:10 33.15767 -84.12549 23291 ft 434 kts 122°
2026-05-04 23:10 33.14243 -84.09425 23725 ft 438 kts 122°
2026-05-04 23:11 33.12707 -84.06271 24105 ft 441 kts 122°
2026-05-04 23:11 33.11159 -84.03099 24511 ft 443 kts 122°
2026-05-04 23:11 33.09531 -83.99974 24908 ft 444 kts 128°
2026-05-04 23:11 33.07534 -83.97166 25302 ft 444 kts 138°
2026-05-04 23:12 33.05194 -83.94783 25692 ft 442 kts 148°
2026-05-04 23:12 33.02667 -83.92681 26088 ft 444 kts 148°
2026-05-04 23:12 33.00125 -83.90563 26462 ft 447 kts 148°
2026-05-04 23:12 32.97571 -83.88425 26824 ft 450 kts 148°
2026-05-04 23:13 32.95001 -83.86272 27190 ft 453 kts 148°
2026-05-04 23:13 32.92414 -83.84108 27558 ft 456 kts 148°
2026-05-04 23:13 32.89811 -83.81930 27928 ft 459 kts 148°
2026-05-04 23:13 32.87193 -83.79740 28298 ft 461 kts 148°
2026-05-04 23:14 32.84560 -83.77542 28654 ft 464 kts 148°
2026-05-04 23:14 32.81914 -83.75339 29005 ft 466 kts 148°
2026-05-04 23:14 32.79252 -83.73120 29346 ft 469 kts 148°
2026-05-04 23:14 32.76573 -83.70894 29675 ft 471 kts 148°
2026-05-04 23:15 32.73879 -83.68661 29991 ft 473 kts 149°
2026-05-04 23:15 32.71173 -83.66417 30261 ft 476 kts 149°
2026-05-04 23:15 32.68451 -83.64164 30522 ft 478 kts 149°
2026-05-04 23:15 32.65693 -83.61946 30783 ft 480 kts 150°
2026-05-04 23:16 32.62900 -83.59767 30999 ft 481 kts 151°
2026-05-04 23:16 32.60130 -83.57637 31041 ft 467 kts 151°
2026-05-04 23:16 32.54750 -83.53516 31044 ft 457 kts 151°
2026-05-04 23:17 32.49435 -83.49430 31044 ft 455 kts 151°
2026-05-04 23:17 32.44140 -83.45334 31024 ft 455 kts 151°
2026-05-04 23:18 32.38824 -83.41221 31048 ft 457 kts 151°
2026-05-04 23:18 32.33495 -83.37113 31064 ft 457 kts 151°
2026-05-04 23:19 32.28173 -83.32999 31067 ft 457 kts 151°
2026-05-04 23:19 32.22848 -83.28896 31069 ft 457 kts 151°
2026-05-04 23:20 32.17521 -83.24804 31073 ft 457 kts 151°
2026-05-04 23:20 32.12188 -83.20727 31046 ft 458 kts 152°
2026-05-04 23:21 32.06841 -83.16625 31048 ft 459 kts 152°
2026-05-04 23:21 32.04158 -83.14565 30580 ft 462 kts 151°
2026-05-04 23:21 32.01451 -83.12487 29817 ft 464 kts 151°
2026-05-04 23:22 31.98763 -83.10421 29238 ft 459 kts 151°
2026-05-04 23:22 31.96098 -83.08379 28657 ft 455 kts 151°
2026-05-04 23:22 31.93454 -83.06364 28086 ft 451 kts 151°
2026-05-04 23:22 31.90833 -83.04370 27527 ft 447 kts 151°
2026-05-04 23:23 31.88234 -83.02393 26958 ft 443 kts 151°
2026-05-04 23:23 31.85662 -83.00436 26446 ft 439 kts 151°
2026-05-04 23:23 31.83111 -82.98493 25918 ft 435 kts 151°
2026-05-04 23:23 31.80583 -82.96564 25415 ft 431 kts 151°
2026-05-04 23:24 31.78078 -82.94654 24908 ft 427 kts 151°
2026-05-04 23:24 31.75593 -82.92766 24415 ft 423 kts 151°
2026-05-04 23:24 31.73201 -82.90788 24102 ft 418 kts 143°
2026-05-04 23:24 31.71045 -82.88597 24029 ft 413 kts 143°
2026-05-04 23:25 31.68872 -82.86390 23559 ft 413 kts 142°
2026-05-04 23:25 31.66695 -82.84184 22259 ft 416 kts 142°
2026-05-04 23:25 31.64525 -82.81983 21916 ft 406 kts 142°
2026-05-04 23:25 31.62416 -82.79838 21672 ft 398 kts 142°
2026-05-04 23:26 31.60337 -82.77720 21409 ft 394 kts 142°
2026-05-04 23:26 31.58270 -82.75616 21147 ft 392 kts 142°
2026-05-04 23:26 31.56212 -82.73526 20898 ft 391 kts 142°
2026-05-04 23:26 31.54164 -82.71447 20657 ft 389 kts 142°
2026-05-04 23:27 31.52120 -82.69383 20442 ft 387 kts 142°
2026-05-04 23:27 31.50085 -82.67330 20083 ft 385 kts 142°
2026-05-04 23:27 31.48065 -82.65290 19754 ft 382 kts 142°
2026-05-04 23:27 31.46063 -82.63265 19423 ft 379 kts 142°
2026-05-04 23:28 31.44047 -82.61288 19088 ft 376 kts 144°
2026-05-04 23:28 31.41978 -82.59430 18767 ft 373 kts 146°
2026-05-04 23:28 31.39880 -82.57659 18443 ft 370 kts 148°
2026-05-04 23:28 31.37777 -82.55934 18093 ft 368 kts 148°
2026-05-04 23:29 31.35685 -82.54220 17723 ft 366 kts 147°
2026-05-04 23:29 31.33613 -82.52506 17412 ft 364 kts 147°
2026-05-04 23:29 31.31562 -82.50787 17095 ft 362 kts 146°
2026-05-04 23:29 31.29524 -82.49066 16770 ft 361 kts 146°
2026-05-04 23:30 31.27493 -82.47348 16466 ft 360 kts 146°
2026-05-04 23:30 31.25471 -82.45633 16153 ft 358 kts 146°
2026-05-04 23:30 31.23464 -82.43927 15839 ft 356 kts 146°
2026-05-04 23:30 31.21469 -82.42230 15532 ft 354 kts 146°
2026-05-04 23:31 31.19484 -82.40547 15225 ft 352 kts 146°
2026-05-04 23:31 31.17503 -82.38873 14915 ft 351 kts 146°
2026-05-04 23:31 31.15525 -82.37204 14605 ft 350 kts 146°
2026-05-04 23:31 31.13553 -82.35539 14310 ft 348 kts 145°
2026-05-04 23:32 31.11592 -82.33887 14007 ft 348 kts 145°
2026-05-04 23:32 31.09641 -82.32242 13693 ft 345 kts 145°
2026-05-04 23:32 31.07706 -82.30609 13389 ft 342 kts 145°
2026-05-04 23:32 31.05781 -82.28989 13117 ft 341 kts 146°
2026-05-04 23:33 31.03831 -82.27424 12815 ft 339 kts 148°
2026-05-04 23:33 31.01856 -82.25934 12531 ft 338 kts 149°
2026-05-04 23:33 30.99894 -82.24430 12239 ft 337 kts 147°
2026-05-04 23:33 30.97971 -82.22890 11925 ft 335 kts 146°
2026-05-04 23:34 30.96075 -82.21310 11407 ft 336 kts 145°
2026-05-04 23:34 30.94197 -82.19698 10955 ft 335 kts 144°
2026-05-04 23:34 30.92338 -82.18076 10523 ft 333 kts 144°
2026-05-04 23:34 30.90499 -82.16465 10243 ft 325 kts 143°
2026-05-04 23:35 30.88727 -82.14911 10122 ft 313 kts 144°
2026-05-04 23:35 30.87040 -82.13435 9969 ft 302 kts 144°
2026-05-04 23:35 30.85373 -82.11983 9748 ft 297 kts 144°
2026-05-04 23:35 30.83718 -82.10551 9496 ft 296 kts 145°
2026-05-04 23:36 30.81926 -82.09361 9254 ft 291 kts 165°
2026-05-04 23:36 30.79957 -82.08873 9003 ft 289 kts 172°
2026-05-04 23:36 30.77975 -82.08514 8750 ft 288 kts 173°
2026-05-04 23:36 30.76002 -82.08165 8504 ft 286 kts 172°
2026-05-04 23:37 30.74063 -82.07808 8252 ft 286 kts 173°
2026-05-04 23:37 30.72104 -82.07439 8013 ft 284 kts 174°
2026-05-04 23:37 30.70156 -82.07078 7782 ft 283 kts 173°
2026-05-04 23:37 30.68228 -82.06724 7540 ft 281 kts 174°
2026-05-04 23:38 30.66305 -82.06364 7203 ft 279 kts 173°
2026-05-04 23:38 30.64398 -82.05997 6841 ft 277 kts 174°
2026-05-04 23:38 30.63112 -82.05753 6596 ft 276 kts 174°
2026-05-04 23:38 30.61223 -82.05394 6208 ft 274 kts 173°
2026-05-04 23:39 30.59349 -82.05044 5823 ft 272 kts 174°
2026-05-04 23:39 30.57491 -82.04709 5435 ft 269 kts 174°
2026-05-04 23:39 30.55654 -82.04381 5061 ft 266 kts 172°
2026-05-04 23:39 30.53833 -82.04080 4668 ft 263 kts 173°
2026-05-04 23:40 30.52021 -82.03811 4286 ft 262 kts 173°
2026-05-04 23:40 30.50220 -82.03562 3905 ft 259 kts 173°
2026-05-04 23:40 30.48475 -82.03343 3517 ft 244 kts 173°
2026-05-04 23:40 30.46836 -82.03174 3141 ft 229 kts 173°
2026-05-04 23:41 30.45285 -82.03027 2767 ft 218 kts 173°
2026-05-04 23:41 30.43804 -82.02897 2382 ft 209 kts 173°
2026-05-04 23:41 30.42393 -82.02708 2018 ft 199 kts 159°
2026-05-04 23:41 30.41244 -82.01935 2149 ft 191 kts 133°
2026-05-04 23:42 30.40561 -82.00611 2199 ft 191 kts 104°
2026-05-04 23:42 30.40610 -81.99153 2114 ft 175 kts 75°
2026-05-04 23:42 30.41012 -81.97907 2019 ft 158 kts 74°
2026-05-04 23:42 30.41375 -81.96766 1986 ft 149 kts 73°
2026-05-04 23:43 30.41725 -81.95657 1989 ft 144 kts 74°
2026-05-04 23:43 30.42066 -81.94574 1970 ft 142 kts 75°
2026-05-04 23:43 30.42403 -81.93504 1959 ft 141 kts 74°
2026-05-04 23:43 30.42738 -81.92440 1954 ft 141 kts 73°
2026-05-04 23:44 30.43067 -81.91375 1952 ft 141 kts 74°
2026-05-04 23:44 30.43395 -81.90309 1956 ft 140 kts 75°
2026-05-04 23:44 30.43722 -81.89246 1956 ft 140 kts 73°
2026-05-04 23:44 30.44049 -81.88184 1952 ft 140 kts 75°
2026-05-04 23:45 30.44375 -81.87120 1957 ft 140 kts 75°
2026-05-04 23:45 30.44702 -81.86057 1959 ft 140 kts 74°
2026-05-04 23:45 30.45029 -81.84992 1957 ft 141 kts 75°
2026-05-04 23:45 30.45358 -81.83920 1967 ft 141 kts 75°
2026-05-04 23:46 30.45687 -81.82848 1964 ft 141 kts 75°
2026-05-04 23:46 30.46017 -81.81771 1968 ft 142 kts 74°
2026-05-04 23:46 30.46348 -81.80691 1966 ft 141 kts 73°
2026-05-04 23:46 30.46676 -81.79616 1827 ft 142 kts 74°
2026-05-04 23:47 30.47006 -81.78542 1610 ft 142 kts 73°
2026-05-04 23:47 30.47332 -81.77476 1397 ft 139 kts 74°
2026-05-04 23:47 30.47649 -81.76419 1200 ft 140 kts 75°
2026-05-04 23:47 30.47976 -81.75363 1033 ft 139 kts 74°
2026-05-04 23:48 30.48321 -81.74321 798 ft 138 kts 72°
2026-05-04 23:48 30.48640 -81.73274 665 ft 136 kts 78°
2026-05-04 23:48 30.48959 -81.72227 457 ft 140 kts 72°
2026-05-04 23:48 30.49269 -81.71161 281 ft 139 kts 73°
2026-05-04 23:49 30.49594 -81.70106 94 ft 138 kts 75°
2026-05-04 23:49 30.49894 -81.69108 38 ft 111 kts 70°
2026-05-04 23:49 30.50085 -81.68487 37 ft 54 kts 70°
2026-05-04 23:49 30.50164 -81.68198 39 ft 32 kts 78°
2026-05-04 23:50 30.50151 -81.68060 36 ft 12 kts 117°
2026-05-04 23:50 30.50085 -81.68000 36 ft 13 kts 171°
2026-05-04 23:50 30.50036 -81.68070 36 ft 12 kts 250°
2026-05-04 23:50 30.50010 -81.68155 35 ft 11 kts 250°
2026-05-04 23:51 30.49986 -81.68233 36 ft 10 kts 250°
2026-05-04 23:51 30.49955 -81.68331 35 ft 15 kts 250°
2026-05-04 23:51 30.49928 -81.68415 35 ft 8 kts 239°
2026-05-04 23:51 30.49881 -81.68445 35 ft 10 kts 192°
2026-05-04 23:52 30.49805 -81.68463 35 ft 11 kts 191°
2026-05-04 23:52 30.49726 -81.68480 35 ft 12 kts 190°
2026-05-04 23:52 30.49645 -81.68498 35 ft 12 kts 190°
2026-05-04 23:52 30.49565 -81.68518 35 ft 12 kts 204°
2026-05-04 23:53 30.49512 -81.68586 35 ft 11 kts 232°
2026-05-04 23:53 30.49465 -81.68655 35 ft 11 kts 232°
2026-05-04 23:53 30.49415 -81.68710 35 ft 10 kts 195°
2026-05-04 23:53 30.49348 -81.68705 35 ft 10 kts 175°
2026-05-04 23:54 30.49299 -81.68687 35 ft 6 kts 129°
2026-05-04 23:54 30.49288 -81.68637 35 ft 6 kts 104°
2026-05-04 23:54 30.49284 -81.68618 35 ft 0 kts 104°